1491145200.51,54175,17.44,74110.3,9.65,-25.03,-24.71,0,*71
1491145201.73,54176,17.44,74108.0,9.67,-24.87,-24.57,0,*79
1491145202.95,54177,17.38,74106.5,9.65,-25.23,-24.93,0,*7D
1491145204.19,54178,17.38,74106.5,9.65,-25.87,-25.61,0,*70
1491145205.39,54179,17.38,74106.3,9.63,-26.07,-25.91,0,*73
1491145206.62,54180,17.44,74110.3,9.63,-25.97,-25.61,0,*70
1491145207.82,54181,17.44,74108.0,9.63,-25.91,-25.61,0,*77
1491145209.1,54182,17.38,74106.0,9.61,-25.97,-25.81,0,*7E
1491145210.33,54183,17.38,74106.8,9.61,-26.65,-26.45,0,*7A
1491145211.55,54184,17.38,74104.0,9.59,-26.55,-26.45,0,*75
1491145212.78,54185,17.44,74110.5,9.57,-26.61,-26.39,0,*76
1491145214.04,54186,17.38,74106.5,9.57,-26.33,-26.07,0,*7F
1491145215.26,54187,17.44,74106.3,9.55,-26.17,-25.91,0,*76
1491145216.49,54188,17.44,74106.0,9.55,-26.33,-25.91,0,*7F
1491145217.71,54189,17.44,74106.5,9.55,-26.17,-25.91,0,*78
1491145218.99,54190,17.38,74104.8,9.53,-25.97,-25.75,0,*77
1491145220.25,54191,17.38,74100.8,9.49,-26.33,-26.03,0,*72
1491145221.53,54192,17.44,74104.5,9.49,-25.97,-25.71,0,*7A
1491145222.79,54193,17.44,74110.5,9.53,-25.81,-25.61,0,*76
1491145224.05,54194,17.44,74108.5,9.49,-25.71,-25.49,0,*7F
1491145225.28,54195,17.44,74108.3,9.49,-25.87,-25.65,0,*79
1491145226.55,54196,17.44,74108.8,9.49,-26.29,-26.17,0,*7B
1491145227.81,54197,17.44,74108.3,9.45,-26.49,-26.33,0,*76
1491145229.04,54198,17.44,74106.3,9.45,-26.49,-26.23,0,*78
1491145230.3,54199,17.44,74110.3,9.45,-25.55,-25.35,0,*73
1491145231.52,54200,17.44,74106.0,9.45,-25.09,-24.93,0,*74
1491145232.77,54201,17.44,74106.5,9.47,-24.87,-24.71,0,*7C
1491145234.03,54202,17.38,74104.8,9.45,-25.55,-25.39,0,*7E
1491145235.25,54203,17.44,74104.5,9.47,-25.87,-25.55,0,*78
1491145236.49,54204,17.44,74108.8,9.45,-25.49,-25.39,0,*75
1491145237.74,54205,17.44,74106.8,9.45,-24.87,-24.77,0,*7C
1491145239.03,54206,17.38,74102.5,9.45,-24.71,-24.21,0,*75
1491145240.28,54207,17.38,74104.0,9.47,-24.21,-23.99,0,*77
1491145241.48,54208,17.44,74108.0,9.47,-24.57,-24.35,0,*78
1491145242.7,54209,17.44,74108.5,9.47,-24.83,-24.51,0,*72
1491145243.92,54210,17.44,74106.8,9.47,-24.67,-24.51,0,*70
1491145245.17,54211,17.44,74108.8,9.47,-25.03,-24.87,0,*79
1491145246.42,54212,17.44,74104.5,9.45,-24.87,-24.77,0,*7A
1491145247.64,54213,17.44,74106.8,9.47,-24.35,-24.15,0,*74
1491145248.86,54214,17.44,74104.3,9.47,-24.35,-24.15,0,*73
1491145250.14,54215,17.44,74110.3,9.49,-24.21,-23.99,0,*7A
1491145251.39,54216,17.44,74108.0,9.53,-24.47,-24.25,0,*72
1491145252.65,54217,17.38,74102.8,9.53,-24.51,-24.41,0,*76
1491145253.92,54218,17.44,74106.3,9.49,-25.03,-24.87,0,*7E
1491145255.2,54219,17.44,74106.8,9.49,-24.83,-24.71,0,*7F
1491145256.45,54220,17.44,74106.0,9.49,-24.97,-24.71,0,*70
1491145257.69,54221,17.38,74106.8,9.53,-24.93,-24.83,0,*73
1491145258.91,54222,17.44,74106.8,9.53,-24.93,-24.77,0,*7B
1491145260.11,54223,17.44,74106.5,9.55,-25.61,-25.39,0,*7B
1491145261.36,54224,17.44,74106.8,9.49,-25.65,-25.55,0,*7F
1491145262.58,54225,17.44,74106.3,9.53,-25.23,-25.13,0,*75
1491145263.83,54226,17.44,74108.5,9.49,-25.29,-25.19,0,*7D
1491145265.08,54227,17.44,74106.3,9.49,-25.49,-25.45,0,*73
1491145266.31,54228,17.44,74106.5,9.49,-25.65,-25.65,0,*70
1491145267.59,54229,17.44,74106.0,9.49,-25.97,-25.71,0,*79
1491145268.83,54230,17.44,74104.3,9.49,-25.45,-25.19,0,*70
1491145270.05,54231,17.44,74104.3,9.47,-25.49,-25.45,0,*7A
1491145271.27,54232,17.44,74106.0,9.47,-25.65,-25.45,0,*77
1491145272.47,54233,17.44,74104.8,9.47,-25.13,-24.97,0,*79
1491145273.66,54234,17.44,74104.0,9.47,-25.19,-24.97,0,*74
1491145274.89,54235,17.44,74110.0,9.45,-25.19,-25.09,0,*71
1491145276.12,54236,17.44,74104.3,9.45,-25.23,-25.09,0,*7B
1491145277.34,54237,17.44,74104.8,9.45,-25.35,-25.19,0,*7C
1491145278.59,54238,17.44,74106.8,9.45,-25.19,-24.87,0,*7B
1491145279.78,54239,17.44,74102.0,9.47,-25.19,-24.97,0,*79
1491145281.03,54240,17.44,74104.8,9.45,-25.19,-25.03,0,*79
1491145282.25,54241,17.44,74104.8,9.45,-25.49,-25.35,0,*78
1491145283.48,54242,17.44,74100.8,9.45,-25.39,-25.23,0,*7B
1491145284.7,54243,17.44,74104.8,9.45,-25.35,-25.19,0,*7F
1491145285.92,54244,17.44,74102.8,9.45,-25.19,-24.93,0,*75
1491145287.14,54245,17.44,74102.5,9.45,-25.19,-24.93,0,*74
1491145288.37,54246,17.44,74100.0,9.45,-25.09,-24.93,0,*76
1491145289.61,54247,17.44,74102.0,9.45,-25.09,-25.03,0,*7F
1491145290.9,54248,17.44,74100.8,9.45,-24.71,-24.41,0,*79
1491145292.13,54249,17.44,74102.3,9.45,-24.77,-24.57,0,*79
1491145293.37,54250,17.44,74102.5,9.47,-24.83,-24.67,0,*7B
1491145294.61,54251,17.44,74102.3,9.47,-24.71,-24.51,0,*72
1491145295.81,54252,17.44,74102.0,9.47,-24.51,-24.35,0,*71
1491145297.03,54253,17.44,74104.3,9.45,-24.61,-24.35,0,*71
1491145298.28,54254,17.44,74106.3,9.45,-24.57,-24.41,0,*70
1491145299.52,54255,17.44,74102.0,9.47,-24.47,-24.21,0,*74
1491145300.78,54256,17.44,74102.0,9.45,-24.51,-24.25,0,*76
1491145301.98,54257,17.44,74104.8,9.47,-24.51,-24.35,0,*74
1491145303.2,54258,17.44,74100.5,9.45,-24.93,-24.77,0,*71
1491145304.45,54259,17.44,74104.5,9.45,-24.87,-24.57,0,*77
1491145305.7,54260,17.44,74104.8,9.47,-24.87,-24.71,0,*7B
1491145306.92,54261,17.44,74106.8,9.45,-24.61,-24.51,0,*72
1491145308.12,54262,17.44,74104.3,9.47,-24.51,-24.35,0,*72
1491145309.35,54263,17.44,74108.0,9.45,-25.23,-25.23,0,*73
1491145310.57,54264,17.44,74104.8,9.47,-25.35,-25.29,0,*7B
1491145311.79,54265,17.44,74106.5,9.47,-24.97,-24.71,0,*7F
1491145313.01,54266,17.44,74104.5,9.47,-25.13,-25.03,0,*75
1491145314.24,54267,17.44,74106.0,9.45,-25.39,-25.23,0,*7C
1491145315.46,54268,17.44,74104.8,9.47,-25.29,-25.13,0,*73
1491145316.68,54269,17.44,74108.0,9.45,-25.39,-25.23,0,*72
1491145317.91,54270,17.44,74106.0,9.45,-25.35,-25.19,0,*7F
1491145319.17,54271,17.44,74106.0,9.45,-25.75,-25.61,0,*75
1491145320.41,54272,17.44,74104.3,9.45,-25.19,-25.03,0,*78
1491145321.61,54273,17.44,74104.3,9.43,-25.35,-25.23,0,*73
1491145322.81,54274,17.44,74106.8,9.43,-25.09,-24.93,0,*71
1491145324.04,54275,17.44,74106.5,9.43,-25.09,-24.87,0,*75
1491145325.23,54276,17.44,74106.3,9.43,-24.93,-24.77,0,*7B
1491145326.43,54277,17.44,74108.3,9.43,-24.57,-24.35,0,*74
1491145327.69,54278,17.44,74104.3,9.43,-24.87,-24.71,0,*76
1491145328.91,54279,17.44,74106.8,9.43,-25.09,-24.87,0,*79
1491145330.12,54280,17.44,74108.8,9.43,-25.39,-25.23,0,*73
1491145331.32,54281,17.44,74106.0,9.43,-24.77,-24.51,0,*7D
1491145332.54,54282,17.44,74104.5,9.41,-24.93,-24.61,0,*75
1491145333.74,54283,17.44,74106.8,9.43,-25.35,-25.19,0,*75
1491145334.96,54284,17.44,74106.0,9.41,-24.93,-24.93,0,*7E
1491145336.2,54285,17.44,74102.5,9.41,-24.97,-24.83,0,*7A
1491145337.45,54286,17.44,74106.0,9.41,-25.09,-24.83,0,*7F
1491145338.65,54287,17.44,74106.0,9.43,-24.93,-24.93,0,*7F
1491145339.84,54288,17.44,74102.8,9.43,-25.35,-25.23,0,*77
1491145341.1,54289,17.44,74106.3,9.41,-25.61,-25.45,0,*75
1491145342.35,54290,17.44,74104.3,9.41,-25.81,-25.61,0,*75
1491145343.61,54291,17.44,74102.3,9.41,-25.91,-25.75,0,*70
1491145344.84,54292,17.44,74106.5,9.41,-25.39,-25.23,0,*72
1491145346.06,54293,17.44,74104.0,9.41,-25.39,-25.23,0,*73
1491145347.31,54294,17.44,74106.0,9.37,-25.97,-25.81,0,*79
1491145348.52,54295,17.44,74106.3,9.37,-25.45,-25.19,0,*76
1491145349.74,54296,17.44,74106.8,9.37,-24.97,-24.83,0,*79
1491145350.96,54297,17.44,74106.3,9.39,-24.97,-24.61,0,*7A
1491145352.2,54298,17.44,74106.0,9.39,-24.67,-24.51,0,*79
1491145353.42,54299,17.44,74104.8,9.39,-24.35,-24.05,0,*7E
1491145354.67,54300,17.44,74106.5,9.39,-24.35,-23.99,0,*7D
1491145355.89,54301,17.44,74106.3,9.39,-24.31,-24.05,0,*7A
1491145357.11,54302,17.44,74106.8,9.39,-24.51,-24.35,0,*7C
1491145358.32,54303,17.44,74104.5,9.43,-24.51,-24.35,0,*70
1491145359.58,54304,17.44,74104.3,9.41,-24.47,-24.25,0,*73
1491145360.82,54305,17.44,74104.8,9.43,-24.71,-24.51,0,*76
1491145362.07,54306,17.44,74106.3,9.41,-25.29,-25.13,0,*7C
1491145363.33,54307,17.44,74106.3,9.41,-25.55,-25.23,0,*75
1491145364.56,54308,17.44,74106.3,9.41,-25.39,-25.13,0,*73
1491145365.8,54309,17.44,74106.3,9.39,-25.49,-25.29,0,*73
1491145367.07,54310,17.44,74104.5,9.39,-25.45,-25.29,0,*77
1491145368.28,54311,17.44,74102.8,9.37,-25.45,-25.19,0,*7B
1491145369.52,54312,17.44,74100.8,9.39,-24.67,-24.51,0,*7A
1491145370.75,54313,17.44,74104.5,9.39,-24.51,-24.31,0,*78
1491145371.99,54314,17.44,74106.0,9.37,-25.03,-24.83,0,*7E
1491145373.23,54315,17.44,74106.8,9.39,-25.19,-25.03,0,*73
1491145374.45,54316,17.44,74102.5,9.37,-25.45,-25.35,0,*72
1491145375.69,54317,17.44,74104.0,9.39,-25.13,-24.87,0,*76
1491145376.91,54318,17.44,74100.3,9.39,-25.35,-25.19,0,*7B
1491145378.11,54319,17.44,74104.5,9.37,-24.51,-24.31,0,*7C
1491145379.34,54320,17.44,74106.5,9.39,-24.97,-24.67,0,*71
1491145380.56,54321,17.44,74104.0,9.37,-25.13,-24.87,0,*7D
1491145381.78,54322,17.44,74106.0,9.37,-25.45,-25.13,0,*71
1491145382.98,54323,17.44,74102.8,9.37,-24.47,-24.05,0,*75
1491145384.23,54324,17.44,74104.5,9.39,-24.31,-23.99,0,*7F
1491145385.48,54325,17.44,74104.8,9.39,-24.21,-23.89,0,*7E
1491145386.73,54326,17.44,74102.3,9.39,-24.05,-23.85,0,*77
1491145387.92,54327,17.44,74102.5,9.37,-24.31,-23.89,0,*73
1491145389.21,54328,17.44,74106.0,9.41,-24.25,-23.85,0,*74
1491145390.44,54329,17.44,74104.5,9.41,-24.57,-24.31,0,*78
1491145391.69,54330,17.44,74100.3,9.41,-24.83,-24.57,0,*79
1491145392.94,54331,17.44,74106.5,9.41,-24.97,-24.83,0,*74
1491145394.16,54332,17.44,74102.3,9.41,-24.93,-24.77,0,*78
1491145395.41,54333,17.44,74104.3,9.41,-24.67,-24.47,0,*71
1491145396.66,54334,17.44,74102.5,9.41,-24.93,-24.83,0,*75
1491145397.9,54335,17.44,74102.3,9.39,-24.87,-24.61,0,*72
1491145399.12,54336,17.44,74106.0,9.39,-25.13,-24.97,0,*74
1491145400.38,54337,17.44,74106.0,9.39,-25.03,-24.83,0,*71
1491145401.64,54338,17.44,74100.5,9.39,-24.35,-24.21,0,*72
1491145402.84,54339,17.44,74100.8,9.37,-24.51,-24.31,0,*7E
1491145404.06,54340,17.44,74100.8,9.39,-24.31,-23.89,0,*7C
1491145405.31,54341,17.44,74104.8,9.39,-23.99,-23.75,0,*7B
1491145406.59,54342,17.44,74104.3,9.41,-24.25,-23.99,0,*75
1491145407.86,54343,17.44,74104.0,9.41,-24.41,-24.15,0,*75
1491145409.14,54344,17.44,74104.3,9.41,-24.41,-24.11,0,*76
1491145410.39,54345,17.44,74104.0,9.41,-24.57,-24.41,0,*75
1491145411.65,54346,17.44,74104.3,9.41,-24.67,-24.47,0,*73
1491145412.88,54347,17.44,74106.3,9.41,-24.77,-24.61,0,*77
1491145414.14,54348,17.44,74102.8,9.41,-24.47,-24.25,0,*7B
1491145415.39,54349,17.44,74106.5,9.41,-24.83,-24.57,0,*77
1491145416.62,54350,17.44,74104.5,9.41,-24.77,-24.57,0,*74
1491145417.86,54351,17.44,74106.5,9.39,-24.87,-24.61,0,*70
1491145419.11,54352,17.44,74102.5,9.41,-24.97,-24.83,0,*71
1491145420.37,54353,17.44,74106.5,9.41,-24.83,-24.61,0,*79
1491145421.62,54354,17.44,74102.5,9.41,-25.29,-25.13,0,*7B
1491145422.87,54355,17.44,74104.0,9.41,-25.29,-25.09,0,*71
1491145424.09,54356,17.44,74102.5,9.41,-24.93,-24.61,0,*7D
1491145425.31,54357,17.44,74106.5,9.39,-24.61,-24.35,0,*7F
1491145426.53,54358,17.44,74106.3,9.39,-24.61,-24.35,0,*70
1491145427.78,54359,17.44,74106.5,9.41,-24.83,-24.61,0,*73
1491145429.03,54360,17.44,74106.3,9.41,-24.61,-24.41,0,*77
1491145430.25,54361,17.44,74104.0,9.39,-24.61,-24.35,0,*7A
1491145431.51,54362,17.44,74104.5,9.39,-24.47,-24.21,0,*78
1491145432.75,54363,17.44,74104.0,9.39,-24.67,-24.61,0,*7F
1491145433.97,54364,17.44,74106.8,9.39,-24.61,-24.47,0,*7A
1491145435.2,54365,17.44,74102.0,9.41,-25.13,-25.09,0,*7B
1491145436.45,54366,17.44,74106.0,9.41,-25.29,-25.23,0,*79
1491145437.68,54367,17.44,74100.5,9.41,-25.13,-25.09,0,*79
1491145438.97,54368,17.44,74106.8,9.41,-25.75,-25.75,0,*7D
1491145440.17,54369,17.44,74106.5,9.37,-25.49,-25.61,0,*77
1491145441.39,54370,17.44,74106.5,9.39,-25.19,-25.19,0,*7B
1491145442.61,54371,17.44,74104.8,9.39,-25.61,-25.61,0,*7A
1491145443.84,54372,17.44,74104.0,9.37,-26.29,-26.03,0,*7F
1491145445.06,54373,17.44,74106.5,9.37,-25.81,-25.65,0,*7C
1491145446.3,54374,17.44,74102.8,9.37,-25.45,-25.29,0,*7B
1491145447.54,54375,17.44,74104.8,9.35,-24.93,-24.71,0,*7E
1491145448.77,54376,17.44,74102.8,9.35,-25.39,-25.35,0,*7D
1491145450.02,54377,17.44,74106.8,9.35,-25.55,-25.39,0,*7A
1491145451.3,54378,17.44,74106.3,9.35,-25.71,-25.71,0,*7F
1491145452.55,54379,17.44,74106.0,9.33,-24.87,-24.71,0,*71
1491145453.76,54380,17.44,74102.8,9.33,-24.51,-24.35,0,*7C
1491145455.0,54381,17.44,74104.8,9.35,-24.67,-24.51,0,*7C
1491145456.24,54382,17.44,74100.5,9.35,-24.93,-24.87,0,*7F
1491145457.47,54383,17.44,74106.5,9.33,-24.71,-24.51,0,*7F
1491145458.69,54384,17.44,74104.8,9.35,-24.57,-24.35,0,*78
1491145459.95,54385,17.44,74100.5,9.33,-24.41,-24.25,0,*79
1491145461.23,54386,17.44,74104.3,9.35,-25.75,-25.71,0,*7A
1491145462.46,54387,17.44,74104.0,9.35,-26.03,-26.03,0,*7F
1491145463.72,54388,17.44,74104.0,9.35,-25.71,-25.65,0,*75
1491145464.92,54389,17.44,74104.8,9.33,-25.35,-25.35,0,*77
1491145466.18,54390,17.44,74104.0,9.33,-25.71,-25.55,0,*79
1491145467.38,54391,17.44,74100.5,9.33,-25.49,-25.39,0,*79
1491145468.58,54392,17.44,74098.3,9.33,-25.39,-25.35,0,*71
1491145469.77,54393,17.44,74100.0,9.33,-25.35,-25.23,0,*7B
1491145470.99,54394,17.44,74100.8,9.33,-25.19,-25.03,0,*70
1491145472.25,54395,17.44,74102.8,9.31,-24.71,-24.57,0,*7C
1491145473.46,54396,17.44,74100.8,9.31,-24.93,-24.77,0,*71
1491145474.69,54397,17.44,74102.8,9.33,-24.57,-24.41,0,*7F
1491145475.93,54398,17.44,74100.3,9.33,-24.67,-24.41,0,*73
1491145477.14,54399,17.5,74104.3,9.33,-24.51,-24.35,0,*74
1491145478.34,54400,17.44,74102.8,9.33,-24.51,-24.35,0,*73
1491145479.53,54401,17.44,74096.8,9.33,-24.57,-24.35,0,*74
1491145480.76,54402,17.44,74098.8,9.33,-24.77,-24.71,0,*75
1491145481.99,54403,17.44,74098.3,9.33,-24.77,-24.71,0,*74
1491145483.19,54404,17.44,74100.8,9.33,-25.39,-25.39,0,*75
1491145484.39,54405,17.44,74102.5,9.33,-25.23,-25.23,0,*74
1491145485.59,54406,17.44,74098.8,9.33,-24.77,-24.93,0,*7D
1491145486.84,54407,17.44,74100.8,9.33,-25.03,-25.03,0,*76
1491145488.03,54408,17.44,74102.8,9.33,-25.35,-25.35,0,*79
1491145489.26,54409,17.44,74098.3,9.35,-25.39,-25.49,0,*79
1491145490.46,54410,17.44,74100.0,9.33,-25.91,-26.07,0,*7C
1491145491.73,54411,17.44,74098.5,9.31,-25.97,-25.81,0,*74
1491145492.96,54412,17.44,74096.5,9.27,-25.87,-25.87,0,*77
1491145494.23,54413,17.44,74098.0,9.31,-25.81,-25.81,0,*71
1491145495.48,54414,17.44,74100.8,9.27,-25.97,-25.87,0,*70
1491145496.77,54415,17.44,74098.0,9.27,-26.33,-26.29,0,*7B
1491145497.97,54416,17.44,74100.0,9.25,-26.49,-26.49,0,*71
1491145499.2,54417,17.44,74098.8,9.23,-26.49,-26.39,0,*71
1491145500.45,54418,17.44,74100.0,9.25,-26.17,-26.13,0,*7B
1491145501.73,54419,17.44,74098.3,9.23,-25.81,-25.81,0,*78
1491145502.96,54420,17.44,74096.0,9.23,-26.07,-26.03,0,*76
1491145504.2,54421,17.44,74100.5,9.23,-26.03,-26.03,0,*73
1491145505.43,54422,17.44,74102.5,9.23,-26.03,-25.91,0,*78
1491145506.68,54423,17.5,74102.8,9.19,-25.61,-25.55,0,*7F
1491145507.91,54424,17.44,74102.0,9.21,-25.87,-25.81,0,*72
1491145509.14,54425,17.44,74100.8,9.19,-25.87,-25.87,0,*7E
1491145510.42,54426,17.44,74100.5,9.19,-25.75,-25.75,0,*7D
1491145511.65,54427,17.44,74100.3,9.21,-25.65,-25.55,0,*74
1491145512.94,54428,17.44,74102.5,9.19,-25.55,-25.55,0,*73
1491145514.17,54429,17.44,74100.8,9.21,-25.87,-25.71,0,*70
1491145515.46,54430,17.44,74100.3,9.19,-25.55,-25.55,0,*7A
1491145516.68,54431,17.44,74100.3,9.17,-25.45,-25.35,0,*72
1491145517.89,54432,17.44,74102.0,9.17,-25.49,-25.49,0,*76
1491145519.12,54433,17.5,74102.3,9.19,-25.91,-25.87,0,*7E
1491145520.34,54434,17.5,74100.0,9.19,-25.87,-25.91,0,*79
1491145521.59,54435,17.44,74100.5,9.19,-26.13,-26.07,0,*7A
1491145522.84,54436,17.5,74102.5,9.19,-25.61,-25.45,0,*7A
1491145524.11,54437,17.44,74100.5,9.15,-25.45,-25.29,0,*7B
1491145525.35,54438,17.44,74098.5,9.17,-25.45,-25.45,0,*7C
1491145526.56,54439,17.44,74096.3,9.17,-25.65,-25.61,0,*79
1491145527.81,54440,17.5,74100.0,9.17,-25.29,-25.29,0,*73
1491145529.02,54441,17.44,74102.3,9.17,-25.65,-25.61,0,*76
1491145530.23,54442,17.5,74100.3,9.17,-25.49,-25.49,0,*71
1491145531.47,54443,17.44,74100.8,9.15,-25.61,-25.49,0,*78
1491145532.71,54444,17.5,74102.3,9.15,-25.49,-25.45,0,*79
1491145533.92,54445,17.44,74100.0,9.13,-25.49,-25.39,0,*75
1491145535.17,54446,17.44,74098.8,9.17,-25.45,-25.29,0,*7F
1491145536.39,54447,17.44,74098.3,9.15,-25.35,-25.35,0,*76
1491145537.62,54448,17.44,74096.8,9.15,-25.65,-25.49,0,*77
1491145538.86,54449,17.5,74100.3,9.15,-25.45,-25.35,0,*7F
1491145540.1,54450,17.5,74100.5,9.15,-25.35,-25.29,0,*7D
1491145541.38,54451,17.44,74098.8,9.15,-25.29,-25.29,0,*71
1491145542.61,54452,17.5,74100.8,9.15,-25.65,-25.49,0,*7C
1491145543.85,54453,17.44,74096.5,9.15,-25.35,-25.29,0,*7E
1491145545.1,54454,17.5,74098.3,9.15,-25.35,-25.29,0,*79
1491145546.29,54455,17.44,74096.5,9.13,-25.35,-25.35,0,*73
1491145547.53,54456,17.44,74096.8,9.13,-25.65,-25.55,0,*73
1491145548.72,54457,17.44,74098.8,9.13,-25.23,-25.23,0,*71
1491145549.92,54458,17.5,74100.0,9.13,-25.09,-24.97,0,*78
1491145551.15,54459,17.5,74100.8,9.13,-24.97,-24.87,0,*7E
1491145552.4,54460,17.5,74100.8,9.11,-24.87,-24.61,0,*7F
1491145553.63,54461,17.44,74100.3,9.13,-24.97,-24.71,0,*7C
1491145554.85,54462,17.5,74100.0,9.13,-25.35,-25.03,0,*72
1491145556.1,54463,17.5,74102.3,9.13,-25.03,-24.87,0,*7B
1491145557.33,54464,17.44,74100.3,9.13,-24.97,-24.71,0,*79
1491145558.56,54465,17.5,74100.5,9.13,-25.65,-25.55,0,*73
1491145559.83,54466,17.44,74100.5,9.11,-25.45,-25.45,0,*71
1491145561.03,54467,17.5,74102.3,9.13,-25.35,-25.23,0,*75
1491145562.28,54468,17.5,74100.0,9.11,-26.23,-26.13,0,*7C
1491145563.52,54469,17.5,74102.0,9.11,-26.07,-26.03,0,*7A
1491145564.78,54470,17.44,74098.5,9.11,-25.87,-25.71,0,*7F
1491145566.04,54471,17.44,74102.0,9.09,-25.75,-25.71,0,*7A
1491145567.29,54472,17.5,74100.0,9.05,-26.45,-26.29,0,*7B
1491145568.52,54473,17.44,74098.8,9.09,-26.13,-26.07,0,*79
1491145569.79,54474,17.5,74100.5,9.05,-26.29,-26.33,0,*7C
1491145571.01,54475,17.5,74100.0,9.05,-25.91,-25.65,0,*7D
1491145572.27,54476,17.5,74102.5,9.05,-25.45,-25.29,0,*7F
1491145573.5,54477,17.5,74096.3,9.05,-25.13,-25.09,0,*7F
1491145574.76,54478,17.5,74102.5,9.05,-25.45,-25.45,0,*7B
1491145576.02,54479,17.44,74096.0,9.03,-25.71,-25.71,0,*7C
1491145577.22,54480,17.5,74098.8,9.03,-25.65,-25.65,0,*7A
1491145578.42,54481,17.5,74102.5,9.03,-25.65,-25.49,0,*75
1491145579.7,54482,17.5,74102.8,9.01,-25.97,-25.71,0,*72
1491145580.92,54483,17.5,74102.3,9.01,-25.19,-24.97,0,*7C
1491145582.17,54484,17.5,74100.0,9.03,-25.03,-24.71,0,*7A
1491145583.39,54485,17.5,74100.5,9.01,-25.39,-25.19,0,*7F
1491145584.67,54486,17.5,74100.5,9.01,-25.81,-25.71,0,*71
1491145585.95,54487,17.5,74098.8,9.01,-25.81,-25.71,0,*70
1491145587.21,54488,17.5,74098.3,9.01,-26.13,-26.03,0,*71
1491145588.44,54489,17.5,74100.0,8.99,-25.61,-25.55,0,*76
1491145589.63,54490,17.5,74100.0,8.99,-25.23,-25.09,0,*71
1491145590.88,54491,17.5,74102.3,8.97,-25.29,-25.39,0,*77
1491145592.12,54492,17.5,74104.8,8.99,-27.19,-27.19,0,*7B
1491145593.36,54493,17.5,74104.3,8.97,-27.19,-27.07,0,*7B
1491145594.58,54494,17.5,74100.5,8.97,-26.23,-26.07,0,*75
1491145595.78,54495,17.5,74104.8,8.95,-25.65,-25.61,0,*74
1491145597.02,54496,17.5,74100.8,8.95,-25.81,-25.81,0,*73
1491145598.24,54497,17.5,74100.5,8.95,-25.97,-25.91,0,*74
1491145599.52,54498,17.5,74104.5,8.93,-26.13,-26.17,0,*7F
1491145600.79,54499,17.5,74102.5,8.93,-26.13,-25.97,0,*75
1491145602.05,54500,17.5,74106.5,8.93,-25.81,-25.65,0,*71
1491145603.3,54501,17.5,74102.0,8.93,-25.49,-25.29,0,*7C
1491145604.52,54502,17.5,74106.0,8.91,-25.49,-25.29,0,*7D
1491145605.74,54503,17.5,74100.8,8.91,-25.19,-25.03,0,*71
1491145606.94,54504,17.5,74102.0,8.91,-25.35,-25.13,0,*79
1491145608.16,54505,17.5,74102.8,8.91,-25.13,-24.87,0,*70
1491145609.36,54506,17.5,74104.8,8.91,-25.35,-25.19,0,*71
1491145610.58,54507,17.5,74106.0,8.93,-25.35,-25.19,0,*72
1491145611.8,54508,17.5,74104.5,8.93,-25.39,-25.19,0,*71
1491145613.04,54509,17.5,74106.8,8.93,-24.97,-24.71,0,*7A
1491145614.29,54510,17.5,74104.8,8.93,-25.13,-24.87,0,*76
1491145615.56,54511,17.5,74102.3,8.93,-25.03,-24.83,0,*72
1491145616.76,54512,17.5,74102.5,8.91,-25.35,-25.13,0,*7E
1491145617.97,54513,17.5,74102.3,8.91,-25.49,-25.49,0,*7B
1491145619.21,54514,17.5,74106.3,8.91,-25.29,-25.03,0,*74
1491145620.43,54515,17.5,74104.0,8.91,-25.29,-25.13,0,*74
1491145621.64,54516,17.5,74102.0,8.91,-25.49,-25.35,0,*75
1491145622.83,54517,17.5,74102.3,8.91,-25.19,-24.97,0,*78
1491145624.05,54518,17.5,74104.3,8.91,-24.97,-24.83,0,*75
1491145625.27,54519,17.5,74104.3,8.91,-24.97,-24.87,0,*70
1491145626.54,54520,17.5,74100.8,8.93,-24.87,-24.71,0,*70
1491145627.79,54521,17.5,74104.0,8.93,-25.29,-25.13,0,*71
1491145629.02,54522,17.5,74100.5,8.91,-25.55,-25.49,0,*74
1491145630.22,54523,17.5,74102.0,8.91,-25.39,-25.35,0,*74
1491145631.47,54524,17.5,74104.8,8.91,-24.87,-24.71,0,*76
1491145632.69,54525,17.5,74102.3,8.91,-24.97,-24.71,0,*76
1491145633.91,54526,17.5,74104.0,8.91,-24.97,-24.87,0,*7C
1491145635.11,54527,17.5,74104.8,8.91,-24.57,-24.35,0,*78
1491145636.31,54528,17.5,74104.0,8.91,-24.57,-24.35,0,*77
1491145637.57,54529,17.5,74106.3,8.91,-24.25,-24.21,0,*76
1491145638.81,54530,17.5,74104.5,8.93,-24.67,-24.57,0,*7B
1491145640.06,54531,17.5,74100.8,8.93,-24.41,-24.35,0,*7A
1491145641.34,54532,17.5,74104.0,8.93,-24.41,-24.21,0,*7C
1491145642.59,54533,17.5,74102.8,8.93,-24.67,-24.57,0,*78
1491145643.78,54534,17.5,74100.5,8.95,-25.23,-24.97,0,*74
1491145645.04,54535,17.5,74102.5,8.93,-25.71,-25.65,0,*78
1491145646.26,54536,17.5,74104.0,8.93,-25.35,-25.19,0,*70
1491145647.51,54537,17.5,74102.8,8.93,-25.71,-25.65,0,*7A
1491145648.74,54538,17.5,74102.3,8.93,-25.49,-25.49,0,*70
1491145650.02,54539,17.5,74102.5,8.93,-26.13,-26.13,0,*71
1491145651.23,54540,17.5,74104.3,8.91,-25.39,-25.49,0,*7A
1491145652.48,54541,17.5,74102.3,8.91,-25.55,-25.55,0,*7C
1491145653.69,54542,17.5,74106.0,8.91,-25.49,-25.35,0,*74
1491145654.88,54543,17.5,74100.5,8.91,-25.87,-25.87,0,*7E
1491145656.11,54544,17.5,74102.3,8.89,-26.07,-26.03,0,*74
1491145657.34,54545,17.5,74102.3,8.89,-25.87,-25.87,0,*71
1491145658.56,54546,17.5,74100.5,8.87,-25.61,-25.55,0,*7B
1491145659.75,54547,17.5,74100.5,8.87,-25.91,-25.91,0,*7D
1491145660.98,54548,17.5,74102.0,8.85,-26.65,-26.61,0,*74
1491145662.22,54549,17.5,74102.8,8.89,-26.03,-26.03,0,*7D
1491145663.47,54550,17.5,74100.8,8.85,-25.29,-25.09,0,*7B
1491145664.67,54551,17.5,74100.8,8.87,-25.23,-25.09,0,*72
1491145665.9,54552,17.5,74104.5,8.85,-25.49,-25.61,0,*71
1491145667.16,54553,17.5,74102.8,8.85,-25.49,-25.45,0,*76
1491145668.38,54554,17.5,74102.8,8.85,-25.39,-25.39,0,*7D
1491145669.63,54555,17.5,74108.0,8.85,-25.91,-25.81,0,*7D
1491145670.85,54556,17.5,74102.5,8.85,-25.91,-25.87,0,*78
1491145672.1,54557,17.5,74102.8,8.81,-26.71,-26.87,0,*73
1491145673.33,54558,17.5,74100.5,8.79,-26.65,-26.71,0,*77
1491145674.59,54559,17.5,74102.5,8.79,-26.13,-26.13,0,*73
1491145675.85,54560,17.5,74102.3,8.77,-25.55,-25.39,0,*7D
1491145677.1,54561,17.5,74100.3,8.79,-24.87,-24.83,0,*7C
1491145678.35,54562,17.5,74100.0,8.79,-24.83,-24.67,0,*71
1491145679.6,54563,17.5,74100.3,8.79,-25.03,-24.83,0,*73
1491145680.83,54564,17.5,74098.5,8.79,-25.13,-25.03,0,*7C
1491145682.08,54565,17.5,74100.5,8.79,-24.87,-24.67,0,*72
1491145683.34,54566,17.5,74100.0,8.79,-24.71,-24.71,0,*7F
1491145684.58,54567,17.5,74100.8,8.79,-24.71,-24.57,0,*7A
1491145685.81,54568,17.5,74102.5,8.79,-24.71,-24.57,0,*75
1491145687.07,54569,17.5,74100.3,8.79,-24.83,-24.67,0,*7A
1491145688.32,54570,17.5,74100.3,8.79,-24.83,-24.67,0,*72
1491145689.59,54571,17.5,74100.3,8.81,-25.03,-25.03,0,*7E
1491145690.83,54572,17.5,74104.0,8.81,-25.65,-25.49,0,*73
1491145692.07,54573,17.5,74102.8,8.79,-25.45,-25.29,0,*71
1491145693.32,54574,17.5,74100.8,8.79,-25.45,-25.45,0,*7C
1491145694.56,54575,17.5,74102.0,8.79,-25.55,-25.49,0,*70
1491145695.79,54576,17.5,74102.5,8.79,-25.49,-25.29,0,*78
1491145697.05,54577,17.5,74100.0,8.77,-25.61,-25.55,0,*76
1491145698.3,54578,17.5,74102.0,8.79,-25.45,-25.29,0,*7A
1491145699.52,54579,17.5,74102.8,8.75,-25.87,-25.91,0,*7A
1491145700.76,54580,17.5,74098.8,8.77,-26.03,-26.03,0,*79
1491145701.99,54581,17.5,74100.0,8.77,-25.35,-25.19,0,*76
1491145703.21,54582,17.5,74100.8,8.77,-24.93,-24.77,0,*71
1491145704.43,54583,17.5,74102.3,8.79,-25.19,-25.03,0,*7F